Date String (YYYY-MM-DD hh:mm:ss) UTC,Instrument flags,Ambient pressure (hPa),Sample flow (lpm),Bypass flow (lpm),Sample temperature (°C),Ambient temperature (°C),ASC tube jacket temperature (°C),LED temperature (°C),Box temperature (°C),Sample RH (%),Span deviation,Mass concentration (μg/m³),Mass concentration (μg/m³),Mass concentration (μg/m³)
DateTimeUTC,F1_M11,P_M11,Q1_M11,Q2_M11,T1_M11,T2_M11,T3_M11,T4_M11,T5_M11,U1_M11,ZSPAN_M11,X0_M11,X2_M11,X1_M11
2022-06-11 17:00:00,,0824.1,5.01,0.00,28.8,27.3,00.0,37.6,30.7,20.6,0000.0,0018.86,0005.21,0003.49
2022-06-11 17:01:00,,0824.1,5.00,0.00,28.8,27.5,00.0,37.6,30.7,19.5,0000.0,0019.13,0005.27,0003.49
2022-06-11 17:02:00,,0824.1,5.00,0.00,28.8,27.7,00.0,37.6,30.8,19.1,0000.0,0019.92,0005.25,0003.48
2022-06-11 17:03:00,,0824.0,5.00,0.00,28.9,27.8,00.0,37.6,30.9,19.0,0000.0,0019.59,0005.25,0003.48
2022-06-11 17:04:00,,0824.1,5.00,0.00,28.9,27.8,00.0,37.6,30.9,18.3,0000.0,0018.83,0005.24,0003.47
2022-06-11 17:05:00,,0824.1,5.01,0.00,28.9,27.3,00.0,37.6,30.7,18.3,0000.0,0017.62,0005.23,0003.46
2022-06-11 17:06:00,,0824.1,5.00,0.00,28.8,27.0,00.0,37.5,30.6,18.3,0000.0,0017.09,0005.20,0003.44
2022-06-11 17:07:00,,0824.1,5.00,0.00,28.8,27.0,00.0,37.5,30.6,19.2,0000.0,0016.24,0005.15,0003.41
2022-06-11 17:08:00,,0824.1,5.00,0.00,28.7,27.1,00.0,37.5,30.6,17.2,0000.0,0014.95,0005.12,0003.39
2022-06-11 17:09:00,,0824.1,5.00,0.00,28.7,27.2,00.0,37.6,30.6,17.2,0000.0,0015.05,0005.05,0003.35
2022-06-11 17:10:00,,0824.1,5.01,0.00,28.8,27.4,00.0,37.6,30.7,16.4,0000.0,0015.79,0005.01,0003.33
2022-06-11 17:11:00,,0824.0,5.00,0.00,28.8,27.6,00.0,37.6,30.8,15.0,0000.0,0015.37,0004.97,0003.30
2022-06-11 17:12:00,,0824.0,5.00,0.00,28.8,27.7,00.0,37.6,30.8,15.6,0000.0,0014.94,0004.91,0003.27
2022-06-11 17:13:00,,0824.0,4.99,0.00,28.9,27.8,00.0,37.6,30.8,18.3,0000.0,0013.86,0004.87,0003.25
2022-06-11 17:14:00,,0824.1,4.99,0.00,28.8,27.3,00.0,37.6,30.7,16.5,0000.0,0014.34,0004.84,0003.22
2022-06-11 17:15:00,,0824.1,5.00,0.00,28.8,26.9,00.0,37.5,30.6,17.9,0000.0,0014.45,0004.76,0003.20
2022-06-11 17:16:00,,0824.1,5.00,0.00,28.8,26.9,00.0,37.5,30.6,16.3,0000.0,0014.07,0004.68,0003.19
2022-06-11 17:17:00,,0824.1,5.01,0.00,28.7,27.1,00.0,37.5,30.6,16.0,0000.0,0014.15,0004.65,0003.17
2022-06-11 17:18:00,,0824.0,5.00,0.00,28.7,27.2,00.0,37.5,30.6,15.2,0000.0,0014.64,0004.67,0003.14
2022-06-11 17:19:00,,0824.0,5.01,0.00,28.7,27.4,00.0,37.5,30.7,14.1,0000.0,0015.05,0004.63,0003.12
2022-06-11 17:20:00,,0824.1,5.00,0.00,28.8,27.6,00.0,37.6,30.7,15.0,0000.0,0014.66,0004.60,0003.13
2022-06-11 17:21:00,,0824.0,4.99,0.00,28.8,27.7,00.0,37.6,30.8,16.5,0000.0,0014.03,0004.56,0003.12
2022-06-11 17:22:00,,0824.0,4.99,0.00,28.8,27.9,00.0,37.6,30.9,15.0,0000.0,0013.42,0004.51,0003.11
2022-06-11 17:23:00,,0823.8,5.00,0.00,28.9,27.7,00.0,37.6,30.8,14.2,0000.0,0013.80,0004.52,0003.10
2022-06-11 17:24:00,,0823.9,5.01,0.00,28.8,27.2,00.0,37.5,30.7,13.8,0000.0,0014.19,0004.57,0003.11
2022-06-11 17:25:00,,0823.9,4.99,0.00,28.8,27.0,00.0,37.5,30.7,13.7,0000.0,0014.01,0004.61,0003.11
2022-06-11 17:26:00,,0823.8,5.00,0.00,28.8,27.1,00.0,37.5,30.6,14.1,0000.0,0013.51,0004.64,0003.09
2022-06-11 17:27:00,,0823.8,5.01,0.00,28.8,27.2,00.0,37.5,30.6,14.7,0000.0,0013.68,0004.72,0003.06
2022-06-11 17:28:00,,0823.9,5.00,0.00,28.8,27.4,00.0,37.6,30.7,14.0,0000.0,0014.15,0004.68,0003.03
2022-06-11 17:29:00,,0823.9,5.00,0.00,28.8,27.5,00.0,37.6,30.7,14.8,0000.0,0014.40,0004.62,0003.02
2022-06-11 17:30:00,,0823.9,5.00,0.00,28.8,27.7,00.0,37.6,30.8,15.7,0000.0,0014.07,0004.59,0003.00
2022-06-11 17:31:00,,0823.9,5.00,0.00,28.9,27.8,00.0,37.6,30.8,14.6,0000.0,0014.65,0004.61,0002.97
2022-06-11 17:32:00,,0823.8,4.99,0.00,28.9,27.7,00.0,37.6,30.8,14.3,0000.0,0013.95,0004.55,0002.92
2022-06-11 17:33:00,,0823.8,5.00,0.00,28.8,27.2,00.0,37.5,30.7,14.0,0000.0,0014.07,0004.56,0002.91
2022-06-11 17:34:00,,0823.7,5.00,0.00,28.8,27.0,00.0,37.5,30.7,14.6,0000.0,0013.75,0004.52,0002.90
2022-06-11 17:35:00,,0823.8,5.01,0.00,28.8,27.0,00.0,37.5,30.6,14.5,0000.0,0013.65,0004.47,0002.87
2022-06-11 17:36:00,,0823.7,5.00,0.00,28.8,27.2,00.0,37.5,30.6,14.8,0000.0,0013.75,0004.42,0002.86
2022-06-11 17:37:00,,0823.7,5.01,0.00,28.8,27.3,00.0,37.5,30.6,15.6,0000.0,0015.21,0004.48,0002.86
2022-06-11 17:38:00,,0823.7,5.00,0.00,28.8,27.5,00.0,37.6,30.7,15.5,0000.0,0016.09,0004.51,0002.89
2022-06-11 17:39:00,,0823.7,5.00,0.00,28.8,27.7,00.0,37.6,30.8,16.4,0000.0,0015.83,0004.56,0002.91
2022-06-11 17:40:00,,0823.8,4.99,0.00,28.9,27.8,00.0,37.6,30.8,16.4,0000.0,0015.26,0004.61,0002.92
2022-06-11 17:41:00,,0823.7,4.99,0.00,28.8,27.4,00.0,37.5,30.8,15.0,0000.0,0015.31,0004.64,0002.94
2022-06-11 17:42:00,,0823.7,5.01,0.00,28.8,27.0,00.0,37.5,30.6,14.8,0000.0,0014.87,0004.65,0002.94
2022-06-11 17:43:00,,0823.7,5.00,0.00,28.8,27.0,00.0,37.5,30.6,16.1,0000.0,0015.18,0004.72,0002.95
2022-06-11 17:44:00,,0823.7,4.99,0.00,28.7,27.1,00.0,37.5,30.6,17.6,0000.0,0015.34,0004.71,0002.96
2022-06-11 17:45:00,,0823.7,5.00,0.00,28.7,27.2,00.0,37.5,30.6,17.5,0000.0,0015.77,0004.76,0002.97
2022-06-11 17:46:00,,0823.7,5.00,0.00,28.7,27.4,00.0,37.5,30.7,16.3,0000.0,0015.87,0004.79,0003.00
2022-06-11 17:47:00,,0823.7,5.00,0.00,28.8,27.6,00.0,37.5,30.8,16.0,0000.0,0015.70,0004.80,0003.02
2022-06-11 17:48:00,,0823.7,5.00,0.00,28.8,27.8,00.0,37.6,30.8,15.7,0000.0,0014.30,0004.76,0003.03
2022-06-11 17:49:00,,0823.7,5.00,0.00,28.9,27.7,00.0,37.6,30.8,15.4,0000.0,0013.45,0004.69,0003.00
2022-06-11 17:50:00,,0823.6,5.00,0.00,28.8,27.2,00.0,37.5,30.7,15.1,0000.0,0013.85,0004.65,0002.99
2022-06-11 17:51:00,,0823.6,5.00,0.00,28.8,27.0,00.0,37.5,30.6,14.4,0000.0,0014.85,0004.62,0002.98
2022-06-11 17:52:00,,0823.7,4.99,0.00,28.8,27.0,00.0,37.5,30.6,14.6,0000.0,0014.42,0004.59,0002.97
2022-06-11 17:53:00,,0823.7,4.99,0.00,28.7,27.1,00.0,37.5,30.6,15.5,0000.0,0014.07,0004.56,0002.98
2022-06-11 17:54:00,,0823.6,5.00,0.00,28.7,27.3,00.0,37.5,30.6,16.3,0000.0,0013.89,0004.51,0002.99
2022-06-11 17:55:00,,0823.6,5.00,0.00,28.8,27.5,00.0,37.5,30.7,16.3,0000.0,0013.80,0004.52,0002.99
2022-06-11 17:56:00,,0823.7,5.01,0.00,28.8,27.6,00.0,37.6,30.8,15.2,0000.0,0013.36,0004.50,0002.99
2022-06-11 17:57:00,,0823.7,5.00,0.00,28.8,27.8,00.0,37.6,30.8,15.8,0000.0,0013.46,0004.52,0003.00
2022-06-11 17:58:00,,0823.7,5.00,0.00,28.8,27.4,00.0,37.5,30.7,15.6,0000.0,0013.91,0004.55,0002.99
2022-06-11 17:59:00,,0823.6,5.00,0.00,28.8,27.0,00.0,37.5,30.6,17.3,0000.0,0014.26,0004.61,0003.00
